Retour au catalogue

ECHOSTAR 12

RAINBOW 1

ActifCommunicationsGEO
NORAD 27852·PAYLOAD·🇺🇸 United States

Lancé Jul 17, 2003 depuis Cape Canaveral Space Force Station

Loading…

TLE

FraisSource: Space-Track

Époque: Sep 14, 2026, 10:04 UTC

1 27852U 03033A   26257.41999113 -.00000140  00000-0  00000-0 0  9998
2 27852   6.4944  84.0220 0013634 133.9218 223.2063  0.98882767 84491

Suivez ECHOSTAR 12 en temps réel avec AllMySat

Download on the App Store